Location: Norton
(51.3000°N, 0.8167°E)
Time: 13:01:58
(UTC+00:00)

Meteor 2-4 Rocket - Pass Details

Date: 03 March 2021
Orbit: 799 x 908 km, 81.2° (Epoch: 11 April)

Event Time Altitude Azimuth Distance (km) Brightness Sun altitude
Rises 18:44:13 0° 348° (NNW) 3,480 7.1 -10.7°
Reaches altitude 10° 18:46:40 10° 351° (N) 2,552 6.4 -11.0°
Maximum altitude 18:52:29 68° 75° (ENE) 968 3.8 -11.9°
Drops below altitude 10° 18:58:22 10° 158° (SSE) 2,582 6.0 -12.9°
Sets 19:00:51 0° 161° (SSE) 3,523 6.7 -13.2°
